(°C)
27°
25°
24°
22°
21°
20°
19°
(°C)
24°
23°
21°
20°
18°
17°
16°
NW
NNW
شمال
شمال
شمال
شمال
NNE
(كم/سا)
6-16
6-17
7-17
7-17
8-17
7-16
6-16
(مم)
0
0
0
0
0
0
0
(%)
19
22
19
15
11
8
4

مستوى ارتفاع الشمس

/ -21.4°
sun-icon
UV 8
06:20
20:19
بدر كامل (185°)
21:18
06:35

متر لكارولاينا الجنوبية (KCUB)

الوقت الشروط درجة الحرارة/
نقطة الندى
رياح مجال رؤية حالة الطقس غيوم الضغط تغيير خام
VFR 28.3°C / 16.7°C variable 0kt >10km - Scattered Clouds 7500ft
Broken Clouds 10000ft
1009 - KCUB 170153Z AUTO 00000KT 10SM SCT075 BKN100 28/17 A2982 RMK AO2 SLP096 T02830167
VFR 29.4°C / 16.7°C 250º 3kt >10km - Scattered Clouds 8000ft 1008 - KCUB 170053Z AUTO 25003KT 10SM SCT080 29/17 A2979 RMK AO2 SLP085 T02940167
VFR 31.1°C / 16.1°C 270º 8kt >10km - Clear 1007 - KCUB 162353Z AUTO 27008KT 10SM CLR 31/16 A2977 RMK AO2 SLP077 T03110161 10328 20306 53005
VFR 32.2°C / 15.6°C 280º 10kt >10km - Few Clouds 7000ft 1007 - KCUB 162253Z AUTO 28010KT 10SM FEW070 32/16 A2975 RMK AO2 SLP072 T03220156
VFR 32.8°C / 15°C 280º 8kt >10km - Few Clouds 7000ft 1007 - KCUB 162153Z AUTO 28008KT 10SM FEW070 33/15 A2975 RMK AO2 SLP070 T03280150
VFR 31.7°C / 15.6°C 250º 9kt Gust 15kt >10km - Scattered Clouds 7000ft 1007 - KCUB 162053Z AUTO 25009G15KT 10SM SCT070 32/16 A2975 RMK AO2 SLP072 T03170156 56023
VFR 32.8°C / 16.1°C 240º 9kt >10km - Broken Clouds 6500ft 1007 - KCUB 161953Z AUTO 24009KT 10SM BKN065 33/16 A2977 RMK AO2 SLP078 T03280161
VFR 32.2°C / 15.6°C 230º 8kt Gust 15kt >10km - Few Clouds 6500ft 1008 - KCUB 161853Z AUTO 23008G15KT 10SM FEW065 32/16 A2979 RMK AO2 SLP085 T03220156
VFR 31.7°C / 16.1°C 200º 10kt Gust 17kt >10km - Scattered Clouds 6000ft 1009 - KCUB 161753Z AUTO 20010G17KT 10SM SCT060 32/16 A2982 RMK AO2 SLP095 T03170161 10317 20206 58020
VFR 31.1°C / 17.8°C 250º 9kt >10km - Clear 1010 - KCUB 161653Z AUTO 25009KT 10SM CLR 31/18 A2984 RMK AO2 SLP103 T03110178
VFR 28.9°C / 18.9°C variable 5kt >10km - Clear 1011 - KCUB 161553Z AUTO VRB05KT 10SM CLR 29/19 A2987 RMK AO2 SLP111 T02890189
VFR 22.8°C / 19.4°C variable 4kt >10km - Clear 1011 - KCUB 161253Z AUTO VRB04KT 10SM CLR 23/19 A2988 RMK AO2 SLP116 T02280194
VFR 20.6°C / 18.9°C 180º 5kt >10km - Clear 1011 - KCUB 161153Z AUTO 18005KT 10SM CLR 21/19 A2987 RMK AO2 SLP111 T02060189 10211 20194 53006
VFR 20°C / 18.3°C variable 0kt >10km - Clear 1010 - KCUB 161053Z AUTO 00000KT 10SM CLR 20/18 A2985 RMK AO2 SLP107 T02000183
VFR 20°C / 18.3°C variable 0kt >10km - Clear 1010 - KCUB 160953Z AUTO 00000KT 10SM CLR 20/18 A2985 RMK AO2 SLP104 T02000183
VFR 20°C / 18.3°C variable 0kt >10km - Clear 1010 - KCUB 160853Z AUTO 00000KT 10SM CLR 20/18 A2985 RMK AO2 SLP106 T02000183 56012
VFR 20°C / 18.3°C 160º 5kt >10km - Clear 1010 - KCUB 160753Z AUTO 16005KT 10SM CLR 20/18 A2986 RMK AO2 SLP108 T02000183
VFR 20.6°C / 18.3°C variable 0kt >10km - Clear 1011 - KCUB 160653Z AUTO 00000KT 10SM CLR 21/18 A2987 RMK AO2 SLP112 T02060183
VFR 21.1°C / 17.8°C 170º 4kt >10km - Clear 1011 - KCUB 160553Z AUTO 17004KT 10SM CLR 21/18 A2989 RMK AO2 SLP118 T02110178 10278 20211 58010
VFR 22.2°C / 17.2°C 210º 4kt >10km - Clear 1012 - KCUB 160453Z AUTO 21004KT 10SM CLR 22/17 A2991 RMK AO2 SLP125 T02220172 403060172
VFR 22.8°C / 17.2°C 180º 3kt >10km - Clear 1012 - KCUB 160353Z AUTO 18003KT 10SM CLR 23/17 A2992 RMK AO2 SLP127 T02280172
VFR 23.3°C / 18.3°C variable 5kt >10km - Scattered Clouds 6000ft
Scattered Clouds 7500ft
1012 - KCUB 160253Z AUTO VRB05KT 10SM SCT060 SCT075 23/18 A2992 RMK AO2 SLP128 T02330183 53021
VFR 23.9°C / 18.9°C variable 0kt >10km - Clear 1011 - KCUB 160153Z AUTO 00000KT 10SM CLR 24/19 A2988 RMK AO2 SLP115 T02390189
VFR 26.1°C / 18.9°C variable 0kt >10km - Clear 1011 - KCUB 160053Z AUTO 00000KT 10SM CLR 26/19 A2986 RMK AO2 SLP110 T02610189

VFR

28.3°C / 16.7°C

[أكثر]
رياح variable 0kt
مجال رؤية >10km
حالة الطقس -
غيوم Scattered Clouds 7500ft
Broken Clouds 10000ft
الضغط 1009
تغيير -
خام KCUB 170153Z AUTO 00000KT 10SM SCT075 BKN100 28/17 A2982 RMK AO2 SLP096 T02830167

VFR

29.4°C / 16.7°C

[أكثر]
رياح 250º 3kt
مجال رؤية >10km
حالة الطقس -
غيوم Scattered Clouds 8000ft
الضغط 1008
تغيير -
خام KCUB 170053Z AUTO 25003KT 10SM SCT080 29/17 A2979 RMK AO2 SLP085 T02940167

VFR

31.1°C / 16.1°C

[أكثر]
رياح 270º 8kt
مجال رؤية >10km
حالة الطقس -
غيوم Clear
الضغط 1007
تغيير -
خام KCUB 162353Z AUTO 27008KT 10SM CLR 31/16 A2977 RMK AO2 SLP077 T03110161 10328 20306 53005

VFR

32.2°C / 15.6°C

[أكثر]
رياح 280º 10kt
مجال رؤية >10km
حالة الطقس -
غيوم Few Clouds 7000ft
الضغط 1007
تغيير -
خام KCUB 162253Z AUTO 28010KT 10SM FEW070 32/16 A2975 RMK AO2 SLP072 T03220156

VFR

32.8°C / 15°C

[أكثر]
رياح 280º 8kt
مجال رؤية >10km
حالة الطقس -
غيوم Few Clouds 7000ft
الضغط 1007
تغيير -
خام KCUB 162153Z AUTO 28008KT 10SM FEW070 33/15 A2975 RMK AO2 SLP070 T03280150

VFR

31.7°C / 15.6°C

[أكثر]
رياح 250º 9kt Gust 15kt
مجال رؤية >10km
حالة الطقس -
غيوم Scattered Clouds 7000ft
الضغط 1007
تغيير -
خام KCUB 162053Z AUTO 25009G15KT 10SM SCT070 32/16 A2975 RMK AO2 SLP072 T03170156 56023

VFR

32.8°C / 16.1°C

[أكثر]
رياح 240º 9kt
مجال رؤية >10km
حالة الطقس -
غيوم Broken Clouds 6500ft
الضغط 1007
تغيير -
خام KCUB 161953Z AUTO 24009KT 10SM BKN065 33/16 A2977 RMK AO2 SLP078 T03280161

VFR

32.2°C / 15.6°C

[أكثر]
رياح 230º 8kt Gust 15kt
مجال رؤية >10km
حالة الطقس -
غيوم Few Clouds 6500ft
الضغط 1008
تغيير -
خام KCUB 161853Z AUTO 23008G15KT 10SM FEW065 32/16 A2979 RMK AO2 SLP085 T03220156

VFR

31.7°C / 16.1°C

[أكثر]
رياح 200º 10kt Gust 17kt
مجال رؤية >10km
حالة الطقس -
غيوم Scattered Clouds 6000ft
الضغط 1009
تغيير -
خام KCUB 161753Z AUTO 20010G17KT 10SM SCT060 32/16 A2982 RMK AO2 SLP095 T03170161 10317 20206 58020

VFR

31.1°C / 17.8°C

[أكثر]
رياح 250º 9kt
مجال رؤية >10km
حالة الطقس -
غيوم Clear
الضغط 1010
تغيير -
خام KCUB 161653Z AUTO 25009KT 10SM CLR 31/18 A2984 RMK AO2 SLP103 T03110178

VFR

28.9°C / 18.9°C

[أكثر]
رياح variable 5kt
مجال رؤية >10km
حالة الطقس -
غيوم Clear
الضغط 1011
تغيير -
خام KCUB 161553Z AUTO VRB05KT 10SM CLR 29/19 A2987 RMK AO2 SLP111 T02890189

VFR

22.8°C / 19.4°C

[أكثر]
رياح variable 4kt
مجال رؤية >10km
حالة الطقس -
غيوم Clear
الضغط 1011
تغيير -
خام KCUB 161253Z AUTO VRB04KT 10SM CLR 23/19 A2988 RMK AO2 SLP116 T02280194

VFR

20.6°C / 18.9°C

[أكثر]
رياح 180º 5kt
مجال رؤية >10km
حالة الطقس -
غيوم Clear
الضغط 1011
تغيير -
خام KCUB 161153Z AUTO 18005KT 10SM CLR 21/19 A2987 RMK AO2 SLP111 T02060189 10211 20194 53006

VFR

20°C / 18.3°C

[أكثر]
رياح variable 0kt
مجال رؤية >10km
حالة الطقس -
غيوم Clear
الضغط 1010
تغيير -
خام KCUB 161053Z AUTO 00000KT 10SM CLR 20/18 A2985 RMK AO2 SLP107 T02000183

VFR

20°C / 18.3°C

[أكثر]
رياح variable 0kt
مجال رؤية >10km
حالة الطقس -
غيوم Clear
الضغط 1010
تغيير -
خام KCUB 160953Z AUTO 00000KT 10SM CLR 20/18 A2985 RMK AO2 SLP104 T02000183

VFR

20°C / 18.3°C

[أكثر]
رياح variable 0kt
مجال رؤية >10km
حالة الطقس -
غيوم Clear
الضغط 1010
تغيير -
خام KCUB 160853Z AUTO 00000KT 10SM CLR 20/18 A2985 RMK AO2 SLP106 T02000183 56012

VFR

20°C / 18.3°C

[أكثر]
رياح 160º 5kt
مجال رؤية >10km
حالة الطقس -
غيوم Clear
الضغط 1010
تغيير -
خام KCUB 160753Z AUTO 16005KT 10SM CLR 20/18 A2986 RMK AO2 SLP108 T02000183

VFR

20.6°C / 18.3°C

[أكثر]
رياح variable 0kt
مجال رؤية >10km
حالة الطقس -
غيوم Clear
الضغط 1011
تغيير -
خام KCUB 160653Z AUTO 00000KT 10SM CLR 21/18 A2987 RMK AO2 SLP112 T02060183

VFR

21.1°C / 17.8°C

[أكثر]
رياح 170º 4kt
مجال رؤية >10km
حالة الطقس -
غيوم Clear
الضغط 1011
تغيير -
خام KCUB 160553Z AUTO 17004KT 10SM CLR 21/18 A2989 RMK AO2 SLP118 T02110178 10278 20211 58010

VFR

22.2°C / 17.2°C

[أكثر]
رياح 210º 4kt
مجال رؤية >10km
حالة الطقس -
غيوم Clear
الضغط 1012
تغيير -
خام KCUB 160453Z AUTO 21004KT 10SM CLR 22/17 A2991 RMK AO2 SLP125 T02220172 403060172

VFR

22.8°C / 17.2°C

[أكثر]
رياح 180º 3kt
مجال رؤية >10km
حالة الطقس -
غيوم Clear
الضغط 1012
تغيير -
خام KCUB 160353Z AUTO 18003KT 10SM CLR 23/17 A2992 RMK AO2 SLP127 T02280172

VFR

23.3°C / 18.3°C

[أكثر]
رياح variable 5kt
مجال رؤية >10km
حالة الطقس -
غيوم Scattered Clouds 6000ft
Scattered Clouds 7500ft
الضغط 1012
تغيير -
خام KCUB 160253Z AUTO VRB05KT 10SM SCT060 SCT075 23/18 A2992 RMK AO2 SLP128 T02330183 53021

VFR

23.9°C / 18.9°C

[أكثر]
رياح variable 0kt
مجال رؤية >10km
حالة الطقس -
غيوم Clear
الضغط 1011
تغيير -
خام KCUB 160153Z AUTO 00000KT 10SM CLR 24/19 A2988 RMK AO2 SLP115 T02390189

VFR

26.1°C / 18.9°C

[أكثر]
رياح variable 0kt
مجال رؤية >10km
حالة الطقس -
غيوم Clear
الضغط 1011
تغيير -
خام KCUB 160053Z AUTO 00000KT 10SM CLR 26/19 A2986 RMK AO2 SLP110 T02610189

انقر لكارولاينا الجنوبية (KCUB)

From till


From till Wind 290º 4kt. Visibility 10km or more. Scattered Clouds 5000ft.
From till Wind variable 3kt. Visibility 10km or more. Few Clouds 5000ft.
From till Wind 330º 4kt. Visibility 10km or more. Sky Clear.

خام: KCUB 162330Z 1700/1724 29004KT P6SM SCT050 FM170200 VRB03KT P6SM FEW050 FM171500 33004KT P6SM SKC

رادار وهطول الأمطار التنبؤ الآني لكارولاينا الجنوبية

رذاذ
ضوء
معتدل
ثقيل
ثقيل جدا
وابل

مؤشر المكان يشير الى كارولاينا الجنوبية. تظهر في هذه الرسوم المتحركة هطول الامطار بالرادار للساعة الماضية, و توقعات 1h. رذاذ أو تساقط ثلوج خفيف قد يكون غير مرئي للرادار. كثافة هطول الأمطار مرمزة بالألوان وتتراوح من الأزرق الفاتح إلى البرتقالي.

صور الأقمار الصناعية الملتقطة حالياً لكارولاينا الجنوبية, الولايات المتحدة الأمريكية

المؤشر يدل على موقع كارولاينا الجنوبية. [أكثر]

تجمع صورة الأقمار الصناعية في الوقت الفعلي بين الضوء المرئي أثناء النهار والأشعة تحت الحمراء أثناء الليل. لا تبدو الصورة مظلمة ليلاً، لأن الأشعة تحت الحمراء يمكنها الكشف عن الاختلافات في درجة الحرارة. لسوء الحظ ، يصعب التمييز بين السحب المنخفضة والضباب ودرجات حرارة الأرض ، وبالتالي يمكن أن تكون الصور غير مرئية تقريبًا أثناء الليل. يتم تحديث صور الأقمار الصناعية Meteosat الخاصة بأوروبا في الوقت الفعلي كل 5 دقائق، بينما يتم تحديث صور GOES-16 / GOES-17 (أمريكا الشمالية والجنوبية) و Himawari (آسيا) كل 10 دقائق.

العودة الى الأعلى